STARLINK-34789, 65022

Orbit data source: Space-Track

STARLINK-34789, 65022 is a payload satellite owned by SpaceX/Seattle (US) in LEO that was launched on Wed, 30 Jul 2025 UTC via an FALCON 9 launch vehicle from the Air Force Eastern Test Range (AFETR). Payload-class satellites include a variety of spacecraft equipped with specific instruments for various scientific and technological missions. These include communications satellites like Starlink; space stations such as the ISS; scientific satellites like the Hubble; Earth observation satellites from companies like Planet Labs, Umbra, and HawkEye 360; GPS; miniature CubeSats for education and research; and military/defense satellites.

Loading next visibility...
Identifier
65022, 2025-161H
Orbit
LEO
Country
Flag of USUS
Related business
Manufacturer
SpaceX/Seattle
Mission
Operational Commercial Communications
Bus & Motor
STARLINK V2MO, Unknown motor
Mass
575 kg wet, ~530 kg dry
Launch date (UTC)
2025-07-30 (11 months ago)
Launch vehicle
FALCON 9
Launch site
Air Force Eastern Test Range (AFETR)
Object type
Payload
Rocket body
Debris
Shape & HBR
Box + 2 Pan, 17.7 m
Radar Cross Section
36.964 m², Large (>1 m²)

Expand to show TLE details & history
Last TLE update: 14 hours ago

TLE from 14 hours ago
0 STARLINK-34789
1 65022U 25161H   26171.27930663  .00008880  00000-0  31153-3 0  9993
2 65022  53.1592 177.9069 0001225  93.1348 266.9792 15.30206108 51024
Epoch: 2026-06-20T06:42Z
TLE epoch observation values (Epoch: 2026-06-20T06:42:12.092Z)
Latitude
-0.00011°
Longitude
168.86022°
Altitude
476.141 km
Speed
7.629 km/s
True Right ascension
11h 51m 37s
True Declination
0° 00' 00"
Sunlit
Object was in daylight at epoch
Visualization orbit readout
Latitude
Unknown
Longitude
Unknown
Altitude
Unknown
Speed
Unknown
Apparent Right ascension
Unknown
Apparent Declination
Unknown
Sunlit
N/A
Visualization observer readout
Local Sidereal Time
07:19:18
Azimuth
Unknown
Elevation
Unknown
Doppler factor
Unknown
Orbital elements
Apogee altitude
476.293 km
Perigee altitude
474.614 km
Semi-major axis
6,853.59 km
Eccentricity
0.00012
Inclination
53.1592°
RAAN
177.9069°
Arg. of periapsis
93.1348°
True anomaly
266.96518°
Mean anomaly
266.9792°
Eccentric anomaly
266.97219°
Mean motion
3.8253 °/min
Orbital period
94.11 mins
BSTAR
0.00031153
Loading maneuver chart data...
Computing Atmospheric mass density...
Loading historical data...
Loading historical data...
Loading historical data...
Loading historical data...
Loading historical data...
Loading historical data...
Loading historical data...

Documentation

Showing up to 5 results
|